Regional Weather Roundup
Issued by NWS

Home | Current Version | Previous Version | Graphics & Text | Print | Product List | Glossary On
Versions: 1 2 3 4 5 6 7 8 9 10 11 12 13 14 15 16 17 18 19 20 21 22 23 24 25 26 27 28 29 30 31 32 33 34 35 36 37 38 39 40 41 42 43 44 45 46 47 48 49 50
000
ASUS43 KBIS 060120
RWRND

NORTH DAKOTA REGIONAL WEATHER ROUNDUP
NATIONAL WEATHER SERVICE BISMARCK ND
800 PM CDT TUE MAY 05 2015

NOTE: "FAIR" INDICATES FEW OR NO CLOUDS BELOW 12,000 FEET WITH NO
SIGNIFICANT WEATHER AND/OR OBSTRUCTIONS TO VISIBILITY.


NDZ001>003-009>011-017-060200-
NORTHWEST NORTH DAKOTA

CITY           SKY/WX    TMP DP  RH WIND       PRES   REMARKS
WILLISTON      SUNNY     76  49  38 SE17G29   29.74S
MINOT          PTCLDY    74  32  21 SE18G25   29.81F
MINOT AFB      PTCLDY    73  33  22 S16       29.80F
$$

NDZ018>021-031>035-040>046-060200-
SOUTHWEST NORTH DAKOTA

CITY           SKY/WX    TMP DP  RH WIND       PRES   REMARKS
BISMARCK       CLEAR     74  45  35 S15       29.84S
DICKINSON      CLEAR     66  49  54 S23G33    29.79F
GARRISON         N/A     72  41  32 S14       29.82F
HETTINGER ARPT PTCLDY    63  51  65 SE16G23   29.82F
$$

NDZ004>008-012>016-024-026-027-054-060200-
NORTHEAST NORTH DAKOTA

CITY           SKY/WX    TMP DP  RH WIND       PRES   REMARKS
GRAND FORKS    PTCLDY    74  31  20 SE12      29.93F
GRND FRKS AFB  PTCLDY    73  33  23 SE8       29.93F
DEVILS LAKE    CLOUDY    66  37  34 SE7       29.90F
$$

NDZ022-023-025-028>030-036>039-047>053-060200-
SOUTHEAST NORTH DAKOTA

CITY           SKY/WX    TMP DP  RH WIND       PRES   REMARKS
FARGO          MOCLDY    74  50  42 S22G30    29.96S
JAMESTOWN      PTCLDY    72  49  44 SE20G28   29.90S
$$




USA.gov is the U.S. government's official web portal to all federal, state and local government web resources and services.